GW0571 Weather Reports


time (UTC)temp
C
wind
direction
speed
KPH
gust
KPH
rain 1hr
cm
rain 24hr
cm
rain mn
cm
humidity
%
barometer
mb
20260905113538 13 36 0.0 3.2 0.00 0.00 0.00 96 1013.2
20260905113034 13 103 0.0 3.2 0.00 0.00 0.00 96 1013.1
20260905112529 13 83 3.2 3.2 0.00 0.00 0.00 96 1013.1
20260905112024 13 107 1.6 3.2 0.00 0.00 0.00 96 1013.0
20260905111519 12 131 1.6 3.2 0.00 0.00 0.00 96 1013.0
20260905111018 12 129 0.0 3.2 0.00 0.00 0.00 96 1012.8
20260905110518 12 105 1.6 3.2 0.00 0.00 0.00 96 1013.0
20260905110013 12 104 0.0 3.2 0.00 0.00 0.00 96 1012.8
20260905105507 12 62 0.0 3.2 0.00 0.00 0.00 96 1012.8
20260905105006 12 59 1.6 3.2 0.00 0.00 0.00 96 1012.6
20260905104503 12 103 0.0 1.6 0.00 0.00 0.00 96 1012.6
20260905103957 12 113 1.6 3.2 0.00 0.00 0.00 96 1012.6
20260905103452 12 22 0.0 0.0 0.00 0.00 0.00 96 1012.5
20260905102948 12 49 0.0 3.2 0.00 0.00 0.00 96 1012.5
20260905102444 12 22 0.0 0.0 0.00 0.00 0.00 96 1012.4
20260905101939 12 22 0.0 1.6 0.00 0.00 0.00 96 1012.3
20260905101438 12 60 0.0 1.6 0.00 0.00 0.00 96 1012.5
20260905100932 12 72 1.6 3.2 0.00 0.00 0.00 96 1012.2
20260905100428 12 94 1.6 3.2 0.00 0.00 0.00 96 1012.2
20260905095927 12 89 0.0 1.6 0.00 0.00 0.00 96 1012.2
20260905095422 12 94 0.0 1.6 0.00 0.00 0.00 96 1012.1
20260905094922 12 32 0.0 3.2 0.00 0.00 0.00 96 1012.1
20260905094418 12 89 0.0 3.2 0.00 0.00 0.00 96 1012.1
20260905093916 12 113 0.0 3.2 0.00 0.00 0.00 96 1012.0
20260905093412 12 89 0.0 0.0 0.00 0.00 0.00 96 1012.3
20260905092907 12 110 0.0 3.2 0.00 0.00 0.00 96 1012.1
20260905092402 12 89 0.0 3.2 0.00 0.00 0.00 96 1012.1
20260905091857 12 123 0.0 1.6 0.00 0.00 0.00 96 1012.3
20260905091357 12 95 1.6 1.6 0.00 0.00 0.00 96 1012.1
20260905090856 12 148 0.0 3.2 0.00 0.00 0.00 96 1012.3
20260905090352 12 35 0.0 3.2 0.00 0.00 0.00 96 1012.2
20260905085850 13 94 0.0 3.2 0.00 0.00 0.00 96 1012.1
20260905085345 13 49 0.0 3.2 0.00 0.00 0.00 96 1012.1
20260905084842 13 129 0.0 0.0 0.00 0.00 0.00 96 1012.2
20260905084340 13 89 0.0 1.6 0.00 0.00 0.00 96 1012.1
20260905083835 13 89 0.0 0.0 0.00 0.00 0.00 96 1012.1
20260905083331 13 103 0.0 1.6 0.00 0.00 0.00 96 1012.1
20260905082827 13 119 0.0 1.6 0.00 0.00 0.00 96 1012.4
20260905082322 13 102 0.0 1.6 0.00 0.00 0.00 96 1012.4
20260905081817 13 103 0.0 1.6 0.00 0.00 0.00 96 1012.4
20260905081313 13 50 0.0 1.6 0.00 0.00 0.00 96 1012.2
20260905080811 13 142 0.0 1.6 0.00 0.00 0.00 96 1012.4
20260905080306 13 119 0.0 1.6 0.00 0.00 0.00 96 1012.4
20260905075805 13 50 0.0 1.6 0.00 0.00 0.00 96 1012.3
20260905075306 14 37 0.0 1.6 0.00 0.00 0.00 96 1012.6
20260905074803 14 38 0.0 1.6 0.00 0.00 0.00 96 1012.4
20260905074300 14 217 0.0 0.0 0.00 0.00 0.00 96 1012.5
20260905073755 14 50 0.0 1.6 0.00 0.00 0.00 96 1012.2
20260905073250 14 33 0.0 3.2 0.00 0.00 0.00 96 1012.2
20260905072744 14 25 1.6 3.2 0.00 0.00 0.00 96 1012.4
20260905072239 14 28 1.6 1.6 0.00 0.00 0.00 96 1012.5
20260905071736 15 25 0.0 1.6 0.00 0.00 0.00 96 1012.4
20260905071232 15 13 0.0 3.2 0.00 0.00 0.00 96 1012.4
20260905070726 15 42 0.0 3.2 0.00 0.00 0.00 96
20260905070223 15 27 0.0 1.6 0.00 0.00 0.00 96
20260905065721 15 39 1.6 3.2 0.00 0.00 0.00 96
20260905065215 15 31 0.0 3.2 0.00 0.00 0.00 96
20260905064710 15 6 0.0 1.6 0.00 0.00 0.00 96
20260905064206 15 18 1.6 3.2 0.00 0.00 0.00 96
20260905063704 15 12 0.0 3.2 0.00 0.00 0.00 96
20260905063201 15 23 0.0 3.2 0.00 0.00 0.00 96
20260905062656 15 0 0.0 3.2 0.00 0.00 0.00 96
20260905062156 15 352 0.0 3.2 0.00 0.00 0.00 96
20260905061655 15 5 0.0 3.2 0.00 0.00 0.00 96
20260905061150 14 22 0.0 1.6 0.00 0.00 0.00 96
20260905060645 14 49 1.6 3.2 0.00 0.00 0.00 96
20260905060142 13 104 1.6 3.2 0.00 0.00 0.00 96
20260905055640 13 22 0.0 0.0 0.00 0.00 0.00 96
20260905055136 13 125 1.6 1.6 0.00 0.00 0.00 96
20260905054631 13 125 1.6 1.6 0.00 0.00 0.00 96
20260905054126 13 106 1.6 3.2 0.00 0.00 0.00 96
20260905053621 13 49 0.0 1.6 0.00 0.00 0.00 96
20260905053116 13 116 0.0 3.2 0.00 0.00 0.00 96
20260905052615 13 113 0.0 1.6 0.00 0.00 0.00 96
20260905052110 13 66 0.0 1.6 0.00 0.00 0.00 96
20260905051606 14 32 0.0 1.6 0.00 0.00 0.00 96
20260905051102 14 50 0.0 1.6 0.00 0.00 0.00 96
20260905050558 14 37 0.0 1.6 0.00 0.00 0.00 96
20260905050054 14 77 0.0 1.6 0.00 0.00 0.00 96
20260905045548 14 113 0.0 1.6 0.00 0.00 0.00 96
20260905045044 14 76 0.0 1.6 0.00 0.00 0.00 96
20260905044544 14 124 0.0 1.6 0.00 0.00 0.00 96
20260905044038 15 44 0.0 1.6 0.00 0.00 0.00 96
20260905043538 15 44 0.0 0.0 0.00 0.00 0.00 96
20260905043033 15 50 0.0 1.6 0.00 0.00 0.00 96
20260905042532 15 19 0.0 1.6 0.00 0.00 0.00 96
20260905042027 15 47 0.0 1.6 0.00 0.00 0.00 96
20260905041523 15 89 0.0 1.6 0.00 0.00 0.00 96
20260905041018 15 32 0.0 0.0 0.00 0.00 0.00 96
20260905040517 15 32 0.0 1.6 0.00 0.00 0.00 96
20260905040016 15 37 0.0 0.0 0.00 0.71 0.71 96
20260905035511 15 37 0.0 1.6 0.00 0.71 0.71 96
20260905035008 15 20 1.6 3.2 0.00 0.71 0.71 96
20260905034503 15 55 0.0 1.6 0.00 0.71 0.71 96
20260905034003 16 37 0.0 0.0 0.00 0.71 0.71 96
20260905033457 16 37 0.0 0.0 0.00 0.71 0.71 96
20260905032952 16 37 0.0 3.2 0.00 0.71 0.71 96
20260905032448 16 37 0.0 1.6 0.00 0.71 0.71 96
20260905031943 16 71 0.0 3.2 0.00 0.71 0.71 96
20260905031438 16 28 0.0 1.6 0.00 0.71 0.71 96
20260905030933 16 89 0.0 0.0 0.00 0.71 0.71 96
20260905030429 16 129 0.0 1.6 0.00 0.71 0.71 96
20260905025927 16 50 0.0 1.6 0.00 0.71 0.71 96
20260905025423 16 23 0.0 0.0 0.00 0.71 0.71 96
20260905024920 16 89 0.0 0.0 0.00 0.71 0.71 95
20260905024420 16 89 0.0 1.6 0.00 0.71 0.71 95
20260905023915 17 115 0.0 1.6 0.00 0.71 0.71 95
20260905023410 17 129 0.0 0.0 0.00 0.71 0.71 94
20260905022909 17 129 0.0 0.0 0.00 0.71 0.71 93
20260905022404 17 129 0.0 0.0 0.00 0.71 0.71 92
20260905021859 17 129 0.0 0.0 0.00 0.71 0.71 92
20260905021349 17 129 0.0 0.0 0.00 0.71 0.71 92
20260905020844 17 142 0.0 1.6 0.00 0.71 0.71 92
20260905020338 17 37 0.0 0.0 0.00 0.71 0.71 91
20260905015838 17 44 0.0 1.6 0.00 0.71 0.71 91
20260905015337 17 6 0.0 0.0 0.00 0.71 0.71 91
20260905014831 17 6 0.0 1.6 0.00 0.71 0.71 91
20260905014327 18 341 0.0 1.6 0.00 0.71 0.71 91
20260905013821 17 24 1.6 3.2 0.00 0.71 0.71 91
20260905013318 18 22 0.0 0.0 0.00 0.71 0.71 91
20260905012813 18 37 0.0 1.6 0.00 0.71 0.71 90
20260905012309 18 326 0.0 0.0 0.00 0.71 0.71 88
20260905011805 18 326 0.0 0.0 0.00 0.71 0.71 87
20260905011300 18 326 0.0 1.6 0.00 0.71 0.71 86
20260905010755 18 6 0.0 3.2 0.00 0.71 0.71 86
20260905010250 18 303 1.6 6.4 0.00 0.71 0.71 85
20260905005747 18 350 0.0 4.8 0.00 0.71 0.71 85
20260905005242 18 335 3.2 4.8 0.00 0.71 0.71 86
20260905004741 18 339 1.6 4.8 0.00 0.71 0.71 86
20260905004236 18 351 3.2 4.8 0.00 0.71 0.71 87
20260905003736 18 350 1.6 3.2 0.00 0.71 0.71 88
20260905003232 18 348 0.0 4.8 0.00 0.71 0.71 88
20260905002728 18 338 0.0 3.2 0.00 0.71 0.71 89
20260905002228 18 322 0.0 3.2 0.00 0.71 0.71 89
20260905001723 18 354 0.0 1.6 0.00 0.71 0.71 89
20260905001222 19 0 0.0 3.2 0.00 0.71 0.71 87
20260905000718 19 3 1.6 3.2 0.00 0.71 0.71 85
20260905000213 19 346 1.6 1.6 0.00 0.71 0.71 85
20260904235708 19 326 0.0 1.6 0.00 0.71 0.71 85
20260904235203 19 315 0.0 3.2 0.00 0.71 0.71 85
20260904234657 19 324 0.0 3.2 0.00 0.71 0.71 85
20260904234153 19 344 1.6 3.2 0.00 0.71 0.71 85
20260904233649 19 10 0.0 1.6 0.00 0.71 0.71 85
20260904233144 20 352 0.0 1.6 0.00 0.71 0.71 85
20260904232641 20 13 0.0 3.2 0.00 0.71 0.71 85
20260904232137 20 2 1.6 1.6 0.00 0.71 0.71 85
20260904231632 19 333 0.0 1.6 0.00 0.71 0.71 86
20260904231127 19 322 0.0 0.0 0.00 0.71 0.71 89
20260904230626 20 322 0.0 3.2 0.00 0.71 0.71 87
20260904230122 20 6 0.0 1.6 0.00 0.71 0.71 84
20260904225619 20 44 0.0 3.2 0.00 0.71 0.71 82
20260904225115 20 293 0.0 0.0 0.00 0.71 0.71 80
20260904224609 21 293 0.0 0.0 0.00 0.71 0.71 80
20260904224104 21 293 0.0 0.0 0.00 0.71 0.71 78
20260904223603 21 296 0.0 3.2 0.00 0.71 0.71 76
20260904223059 21 310 0.0 3.2 0.00 0.71 0.71 77
20260904222555 21 298 1.6 4.8 0.00 0.71 0.71 74
20260904222050 22 336 0.0 3.2 0.00 0.71 0.71 73
20260904221550 22 325 0.0 3.2 0.00 0.71 0.71 69
20260904221044 22 315 0.0 4.8 0.00 0.71 0.71 69
20260904220543 22 337 3.2 4.8 0.00 0.71 0.71 69
20260904220039 22 310 3.2 4.8 0.00 0.71 0.71 71
20260904215534 22 306 1.6 4.8 0.00 0.71 0.71 69
20260904215030 22 269 0.0 4.8 0.00 0.71 0.71 72
20260904214525 23 321 1.6 3.2 0.00 0.71 0.71 68
20260904214020 23 335 3.2 11.3 0.00 0.71 0.71 67
20260904213518 24 335 4.8 8.0 0.00 0.71 0.71 63
20260904213015 24 312 3.2 4.8 0.00 0.71 0.71 61
20260904212514 23 251 1.6 14.5 0.00 0.71 0.71 65
20260904212009 23 269 0.0 6.4 0.00 0.71 0.71 64
20260904211504 24 258 8.0 9.7 0.00 0.71 0.71 63
20260904211000 25 262 3.2 3.2 0.00 0.71 0.71 61
20260904210459 24 313 3.2 12.9 0.00 0.71 0.71 60
20260904205955 25 256 3.2 8.0 0.00 0.71 0.71 61
20260904205450 24 257 4.8 6.4 0.00 0.71 0.71 62
20260904204947 24 259 3.2 8.0 0.00 0.71 0.71 61
20260904204443 24 322 3.2 9.7 0.00 0.71 0.71 59
20260904203938 25 260 8.0 16.1 0.00 0.71 0.71 57
20260904203435 23 278 1.6 11.3 0.00 0.71 0.71 65
20260904202930 24 345 3.2 4.8 0.00 0.71 0.71 64
20260904202426 24 269 1.6 8.0 0.00 0.71 0.71 61
20260904201922 24 327 4.8 8.0 0.00 0.71 0.71 61
20260904201417 24 252 4.8 14.5 0.00 0.71 0.71 62
20260904200912 25 265 1.6 6.4 0.00 0.71 0.71 60
20260904200405 24 323 6.4 8.0 0.00 0.71 0.71 62
20260904195900 25 279 4.8 8.0 0.00 0.71 0.71 61
20260904195358 25 308 1.6 8.0 0.00 0.71 0.71 59
20260904194853 23 267 4.8 12.9 0.00 0.71 0.71 61
20260904194352 23 305 4.8 9.7 0.00 0.71 0.71 63
20260904193848 23 310 3.2 8.0 0.00 0.71 0.71 63
20260904193343 23 315 0.0 16.1 0.00 0.71 0.71 62
20260904192838 23 304 1.6 8.0 0.00 0.71 0.71 64
20260904192333 23 314 4.8 8.0 0.00 0.71 0.71 65
20260904191830 24 274 1.6 6.4 0.00 0.71 0.71 63
20260904191326 24 337 6.4 8.0 0.00 0.71 0.71 68
20260904190823 24 258 0.0 8.0 0.00 0.71 0.71 63
20260904190318 24 300 3.2 8.0 0.00 0.71 0.71 62
20260904185814 25 325 4.8 6.4 0.00 0.71 0.71 62
20260904185310 23 324 4.8 8.0 0.00 0.71 0.71 64
20260904184809 23 310 6.4 8.0 0.00 0.71 0.71 65
20260904184304 24 15 4.8 6.4 0.00 0.71 0.71 65
20260904183759 23 327 4.8 11.3 0.00 0.71 0.71 64
20260904183254 23 237 12.9 22.5 0.00 0.71 0.71 64
20260904182749 23 17 1.6 8.0 0.00 0.71 0.71 68
20260904182244 23 271 1.6 6.4 0.00 0.71 0.71 69
20260904181740 23 311 4.8 6.4 0.00 0.71 0.71 66
20260904181240 23 313 4.8 11.3 0.00 0.71 0.71 69
20260904180735 23 232 9.7 11.3 0.00 0.71 0.71 66
20260904180230 22 249 3.2 6.4 0.00 0.71 0.71 73
20260904175729 22 239 4.8 8.0 0.00 0.71 0.71 74
20260904175228 22 290 0.0 6.4 0.00 0.71 0.71 73
20260904174723 22 273 1.6 11.3 0.00 0.71 0.71 72
20260904174219 22 322 4.8 6.4 0.00 0.71 0.71 70
20260904173714 22 312 1.6 4.8 0.00 0.71 0.71 71
20260904173209 23 333 3.2 6.4 0.00 0.71 0.71 69
20260904172706 23 267 1.6 6.4 0.00 0.71 0.71 71
20260904172204 22 263 3.2 8.0 0.00 0.71 0.71 69
20260904171700 23 245 4.8 9.7 0.00 0.71 0.71 71
20260904171154 23 334 4.8 17.7 0.00 0.71 0.71 69
20260904170651 23 272 3.2 8.0 0.00 0.71 0.71 70
20260904170147 22 310 4.8 12.9 0.00 0.71 0.71 71
20260904165645 22 285 4.8 11.3 0.00 0.71 0.71 72
20260904165144 22 5 1.6 11.3 0.00 0.71 0.71 73
20260904164640 23 9 6.4 9.7 0.00 0.71 0.71 68
20260904164135 22 325 6.4 16.1 0.00 0.71 0.71 73
20260904163630 23 346 4.8 4.8 0.00 0.71 0.71 72
20260904163120 22 333 4.8 4.8 0.00 0.71 0.71 75
20260904162620 23 321 3.2 4.8 0.00 0.71 0.71 71
20260904162115 23 340 3.2 6.4 0.00 0.71 0.71 70
20260904161610 22 278 3.2 17.7 0.00 0.71 0.71 72
20260904161105 23 266 4.8 6.4 0.00 0.71 0.71 72
20260904160600 23 280 0.0 8.0 0.00 0.71 0.71 73
20260904160057 22 286 4.8 6.4 0.00 0.71 0.71 76
20260904155556 21 238 3.2 4.8 0.00 0.71 0.71 80
20260904155050 21 244 3.2 3.2 0.00 0.71 0.71 80
20260904154544 21 206 0.0 4.8 0.00 0.71 0.71 79
20260904154039 21 341 4.8 8.0 0.00 0.71 0.71 78
20260904153538 22 315 3.2 8.0 0.00 0.71 0.71 79
20260904153035 22 336 3.2 6.4 0.00 0.71 0.71 78
20260904152530 22 347 4.8 9.7 0.00 0.71 0.71 79
20260904152026 21 252 6.4 8.0 0.00 0.71 0.71 79
20260904151520 21 254 4.8 9.7 0.00 0.71 0.71 81
20260904151015 20 346 4.8 4.8 0.00 0.71 0.71 84
20260904150515 21 269 3.2 11.3 0.00 0.71 0.71 84
20260904150009 20 246 6.4 9.7 0.00 0.71 0.71 84
20260904145504 21 257 1.6 12.9 0.00 0.71 0.71 82
20260904144959 21 226 3.2 8.0 0.00 0.71 0.71 81
20260904144455 21 309 3.2 8.0 0.00 0.71 0.71 82
20260904143950 21 304 1.6 4.8 0.00 0.71 0.71 84
20260904143447 21 299 3.2 4.8 0.00 0.71 0.71 82
20260904142943 21 329 1.6 8.0 0.00 0.71 0.71 83
20260904142439 20 357 4.8 8.0 0.00 0.71 0.71 85
20260904141938 20 354 4.8 6.4 0.00 0.71 0.71 84
20260904141433 20 305 3.2 6.4 0.00 0.71 0.71 84
20260904140925 21 350 6.4 8.0 0.00 0.71 0.71 83
20260904140425 20 306 3.2 6.4 0.00 0.71 0.71 84
20260904135924 20 311 1.6 12.9 0.00 0.71 0.71 86
20260904135423 20 323 3.2 4.8 0.00 0.71 0.71 85
20260904134920 20 230 6.4 9.7 0.00 0.71 0.71 85
20260904134420 20 325 3.2 6.4 0.00 0.71 0.71 87
20260904133914 20 258 0.0 4.8 0.00 0.71 0.71 88
20260904133414 20 349 3.2 4.8 0.00 0.71 0.71 87
20260904132910 19 342 8.0 11.3 0.00 0.71 0.71 91
20260904132405 18 35 1.6 6.4 0.00 0.71 0.71 93
20260904131904 18 338 1.6 4.8 0.00 0.71 0.71 95
20260904131359 18 0 1.6 3.2 0.00 0.71 0.71 96
20260904130855 17 222 3.2 4.8 0.00 0.71 0.71 96
20260904130354 17 233 0.0 8.0 0.00 0.71 0.71 96
20260904125849 17 293 0.0 6.4 0.00 0.71 0.71 96
20260904125346 17 262 6.4 9.7 0.00 0.71 0.71 96
20260904124845 17 258 4.8 8.0 0.00 0.71 0.71 96
20260904124342 17 347 0.0 6.4 0.00 0.71 0.71 96
20260904123836 17 298 0.0 8.0 0.00 0.71 0.71 96
20260904123331 17 60 4.8 6.4 0.00 0.71 0.71 96
20260904122826 17 34 0.0 3.2 0.00 0.71 0.71 96
20260904122321 17 252 0.0 3.2 0.00 0.71 0.71 96
20260904121816 17 276 0.0 4.8 0.00 0.71 0.71 96
20260904121312 17 309 3.2 4.8 0.00 0.71 0.71 96
20260904120809 17 217 0.0 4.8 0.00 0.71 0.71 96
20260904120304 17 112 0.0 1.6 0.00 0.71 0.71 96
20260904115759 17 69 0.0 3.2 0.00 0.71 0.71 96
20260904115254 17 142 0.0 1.6 0.00 0.71 0.71 96
20260904114749 17 336 0.0 3.2 0.00 0.71 0.71 96
20260904114248 17 113 0.0 3.2 0.00 0.71 0.71 96
20260904113744 17 50 0.0 3.2 0.00 0.71 0.71 96